Tracking 25693 objects as of 1-Jul-2022
HD Live streaming from Space Station
objects crossing your sky now

CZ-4B DEB

Track CZ-4B DEB now!
10-day predictions


NORAD ID: 29538
Int'l Code: 2006-015E
Perigee: 590.6 km
Apogee: 790.5 km
Inclination: 98.0 °
Period: 98.4 minutes
Semi major axis: 7061 km
RCS: 0.0184 m2 (small)
Launch date: April 26, 2006
Source: People's Republic of China (PRC)
Launch site: Taiyaun Space Center, China (TSC)

Note: This is SATELLITE DEBRIS
aabbcc
Your satellite tracking list
Your tracking list is empty




NASA's NSSDC Master Catalog

Two Line Element Set (TLE):
1 29538U 06015E   22181.73611573  .00001807  00000-0  31369-3 0  9997
2 29538  97.9981 290.8369 0141526 120.2044 241.3261 14.63026573854240
Source of the keplerian elements: AFSPC